{"data":{"norad_id":65411,"epoch":"2026-09-20T16:21:00.460512Z","epoch_age_seconds":99114,"freshness":"FRESH","line1":"1 65411U 25192H   26263.68125533  .00015146  00000+0  49850-3 0  9993","line2":"2 65411  53.1494  44.8371 0000236 312.2864  47.8117 15.31721218 59260","mean_motion":15.31721218,"eccentricity":2.36e-5,"inclination_deg":53.1494,"raan_deg":44.8371,"arg_perigee_deg":312.2864,"mean_anomaly_deg":47.8117,"bstar":0.0004985,"rev_number":5926,"period_min":94.011885653725,"perigee_km":470.51511419747,"apogee_km":470.83837820629,"semimajor_km":6848.8137462019,"source":"CELESTRAK","updated_at":"2026-09-21T09:00:35.603695Z"}}